Wind_Speed
10 8 9 10 10 10 9 8 9 9 8 9 12 15 17 19 19 20 20 19 19 20 20 19 19 18 17 15 14 14 16 17 17 19 20 20 18 16 15 13 10 9 9
12 12 12 13 12 13 13 11 9 8 7 8 11 14 18 21 23 23 23 23 23 23 23 22 21 21 21 20 18 17 17 19 19 19 20 21 21 18 16 15 12 10 9
15 15 15 15 14 15 16 17 15 11 9 9 10 13 17 20 22 23 24 24 24 24 23 23 21 20 20 21 21 19 19 20 20 19 18 19 20 18 17 15 13 12 10
18 18 17 17 16 17 18 20 20 17 15 13 13 14 17 20 22 23 23 23 23 23 23 23 22 21 20 21 22 20 19 21 21 19 17 17 17 16 15 15 14 13 12
19 20 20 19 19 19 20 21 21 21 20 18 17 18 19 21 22 22 23 23 24 24 24 24 24 22 21 20 22 21 20 21 22 21 18 17 17 16 15 15 15 14 13
20 21 21 21 22 22 23 23 23 24 24 22 21 21 22 23 23 22 23 23 24 24 24 25 24 22 21 20 18 18 19 21 23 22 20 19 18 17 16 15 14 14 13
21 21 22 23 24 25 25 26 25 26 26 26 24 24 23 24 24 23 22 23 24 24 24 24 23 22 22 20 17 16 18 21 24 24 23 21 20 19 18 16 15 14 14
21 21 22 24 26 27 28 28 27 27 27 27 27 27 26 25 24 23 23 23 24 24 24 24 23 22 22 21 19 18 19 22 24 25 24 24 22 21 20 18 17 16 15
21 22 24 25 27 28 28 28 27 27 27 28 28 28 28 28 25 25 25 24 24 24 24 24 23 22 22 21 20 20 20 21 23 24 25 25 24 24 23 21 19 18 17
24 25 25 26 27 27 26 26 26 26 27 27 27 27 28 28 28 26 26 26 25 24 24 24 24 23 22 21 20 20 21 21 22 23 24 25 25 25 24 23 22 21 20
25 25 25 26 25 25 24 24 25 26 27 27 28 28 28 28 27 27 26 26 25 24 24 24 25 24 23 22 22 22 22 22 22 23 23 24 25 25 26 25 24 23 22
24 25 25 25 24 23 24 25 26 27 27 27 27 28 29 30 28 27 26 25 25 25 24 24 25 25 24 23 23 24 25 25 24 24 24 24 24 24 25 26 26 26 25
24 25 25 24 23 23 24 25 26 26 25 25 26 27 28 29 28 27 25 25 25 25 24 23 23 23 23 24 23 25 26 27 26 25 24 24 23 23 23 24 25 26 26
24 25 25 24 24 24 25 26 26 25 24 23 24 25 27 27 27 26 25 25 25 25 24 22 20 20 20 21 22 23 25 27 27 26 24 24 23 23 23 23 23 24 24
25 26 26 26 25 25 26 26 25 24 23 22 21 21 23 25 25 24 23 25 25 25 25 23 21 19 18 18 19 20 21 24 26 26 25 25 24 24 24 23 22 21 21
26 28 29 28 27 27 26 24 24 23 22 21 19 18 19 20 20 19 20 19 22 24 25 25 24 21 20 19 18 18 19 21 25 26 26 26 26 25 25 23 22 21 20
26 27 27 27 26 25 24 23 22 22 21 20 19 18 18 18 18 18 18 17 19 22 24 26 26 25 24 23 22 20 18 19 21 24 26 27 27 27 26 25 24 23 22
22 22 23 23 23 23 23 23 22 21 20 20 19 19 18 18 19 20 20 19 20 21 23 26 28 30 30 28 26 24 23 22 21 22 23 25 26 27 27 26 25 25 24
18 20 21 21 21 21 21 21 21 20 20 20 20 20 19 18 18 19 20 21 21 22 23 25 27 30 32 32 30 29 28 27 26 24 24 24 25 26 27 26 26 26 26
18 18 19 20 20 21 21 21 21 20 20 21 22 22 21 20 19 18 19 21 22 23 23 24 25 28 31 32 32 31 31 31 30 28 27 27 27 27 27 27 27 27 28
19 19 19 19 20 21 22 22 22 22 22 22 24 25 24 23 21 21 20 21 22 24 25 25 26 27 29 31 33 34 34 34 33 32 31 30 28 28 29 30 30 30 31
20 20 20 20 20 20 21 21 22 22 23 23 24 25 26 25 24 23 23 23 24 24 25 26 25 26 28 31 34 36 37 36 34 35 33 32 30 31 32 32 32 33 33
21 21 21 21 21 21 21 22 21 22 22 23 24 25 26 26 26 25 25 25 25 25 25 25 26 25 27 29 32 36 38 39 38 37 35 34 34 34 33 33 34 34 35
21 22 22 22 22 21 21 22 22 22 23 23 23 24 25 26 26 26 26 26 26 26 26 26 26 27 26 26 30 34 36 39 40 40 38 36 36 36 34 34 34 35 36
20 21 21 21 21 20 20 20 21 22 22 22 22 23 24 25 25 25 25 26 26 26 26 26 26 26 26 25 25 29 33 37 40 41 41 39 39 39 38 37 36 37 37
19 19 19 19 19 19 19 19 20 21 21 21 22 23 23 24 24 24 24 24 25 25 25 25 25 25 24 24 23 24 28 33 39 42 43 43 43 43 42 41 41 40 39
Wind_Direction
302 311 325 331 335 338 345 356 1 350 318 279 259 246 237 232 230 232 236 241 244 248 252 256 258 259 261 260 259 254 246 243 237 229 224 219 216 216 220 226 231 226 223
298 300 309 315 316 321 328 333 337 339 322 291 267 253 244 237 233 234 236 240 244 247 251 253 256 260 259 255 253 252 247 242 238 231 226 223 221 218 220 224 229 227 224
294 296 300 302 300 307 316 320 321 319 308 291 275 259 249 246 242 240 240 242 243 244 246 248 251 257 257 251 248 249 246 241 237 233 228 221 220 214 215 223 232 232 227
292 292 293 292 289 296 306 310 308 306 304 295 281 267 254 248 247 246 245 245 244 242 241 244 247 253 255 249 245 246 244 239 235 231 224 217 213 212 217 227 235 237 233
289 286 285 283 281 287 294 298 296 296 298 297 289 278 266 255 250 247 249 250 246 242 241 242 245 246 247 245 242 241 240 235 230 227 222 218 215 218 224 230 236 238 237
279 277 276 274 275 281 287 290 289 291 292 291 286 280 275 267 258 252 252 252 246 242 241 241 241 240 239 237 240 235 234 229 224 223 223 222 222 225 230 233 236 238 239
271 269 269 269 272 278 283 285 285 286 286 287 283 278 275 272 265 256 254 251 244 242 240 239 237 235 233 231 232 232 230 225 222 223 225 226 228 231 234 237 238 238 239
266 263 264 266 270 276 280 281 281 282 282 282 281 277 272 269 264 258 252 250 245 242 241 238 235 232 231 228 229 231 231 227 224 226 229 231 233 235 237 240 242 242 241
265 264 265 268 270 274 277 279 280 279 279 279 278 276 270 265 263 259 250 248 245 243 241 236 231 229 228 228 229 231 232 232 231 231 233 234 236 238 239 242 244 247 247
264 268 271 275 276 278 279 279 280 280 279 278 276 273 272 267 262 262 252 244 243 243 241 234 229 227 226 228 231 230 231 233 235 236 237 237 238 240 241 242 244 247 249
265 271 276 280 283 284 284 283 282 280 279 276 272 269 270 269 264 262 255 245 242 242 240 234 230 230 227 227 230 229 228 231 234 237 239 240 241 242 242 241 241 243 246
268 273 277 283 287 289 289 287 285 283 281 276 270 265 265 267 267 266 259 247 240 239 237 233 232 234 232 229 230 230 228 228 232 236 240 242 243 243 242 240 239 239 243
273 277 283 288 290 290 289 288 287 285 282 275 269 263 261 263 266 267 265 252 237 234 234 233 233 235 236 234 234 233 230 229 231 235 239 242 242 243 242 240 238 237 239
280 285 290 293 292 290 289 288 287 286 282 276 271 264 260 260 263 264 263 252 239 230 229 232 233 234 235 234 234 233 232 231 232 234 237 239 240 241 241 242 241 239 238
288 292 294 293 290 287 286 287 287 286 281 275 271 265 260 258 259 259 262 253 240 228 226 231 235 236 236 235 234 233 230 230 230 232 235 237 239 241 243 245 243 242 241
293 295 296 294 290 286 284 285 286 285 279 272 267 262 258 256 254 254 253 249 237 229 224 229 234 238 240 239 238 236 232 231 231 233 235 236 238 242 245 245 243 242 240
297 297 296 294 291 288 284 283 283 283 277 269 262 258 255 254 253 249 247 248 242 233 229 231 235 239 242 242 241 241 239 236 235 235 236 235 236 239 242 243 241 240 238
300 298 297 296 293 288 282 278 279 277 272 267 260 255 254 253 253 251 250 250 246 238 234 235 236 238 242 244 243 243 244 243 239 237 237 236 236 238 239 240 239 239 240
299 296 295 294 292 287 280 276 276 274 268 263 259 256 254 254 253 251 249 248 246 243 241 241 241 241 242 244 243 243 244 247 245 242 241 241 240 241 241 242 242 242 244
297 297 295 292 289 285 280 276 274 272 267 261 257 256 255 254 252 249 246 244 244 244 244 245 246 248 246 244 244 243 243 245 247 246 245 244 245 246 246 246 246 247 248
297 297 297 296 292 286 281 277 273 272 268 263 258 255 254 254 253 251 248 246 243 244 246 248 251 253 250 247 246 245 245 245 246 245 244 245 248 250 250 248 247 247 249
296 296 296 296 293 287 282 277 274 273 270 264 259 255 253 253 253 254 253 252 249 248 249 251 253 255 254 253 250 248 247 247 245 243 243 246 250 252 252 251 250 249 249
296 294 294 295 293 288 283 278 277 274 272 267 260 255 252 251 252 254 256 257 256 254 253 253 255 258 258 255 254 252 249 248 245 245 245 248 251 253 253 253 253 252 251
294 293 294 294 293 289 283 278 277 275 272 269 263 256 252 250 250 251 253 255 258 258 258 257 258 260 263 263 259 255 252 248 246 247 248 250 253 253 254 254 255 255 255
294 293 293 293 294 291 285 280 277 275 273 268 263 257 253 250 249 249 251 252 255 257 259 261 263 265 265 265 263 258 252 248 247 248 250 252 254 256 256 258 258 258 258
294 293 292 293 294 292 288 283 278 275 271 268 263 257 253 251 250 250 252 254 256 258 259 260 262 264 266 265 263 262 258 252 249 249 251 254 255 257 258 260 261 260 259
Height
5882 5882 5880 5879 5877 5876 5874 5874 5873 5873 5872 5872 5873 5874 5875 5875 5876 5877 5878 5879 5880 5882 5883 5884 5886 5887 5888 5889 5890 5891 5891 5892 5893 5894 5896 5898 5901 5903 5904 5905 5906 5907 5908
5880 5879 5878 5877 5875 5874 5872 5872 5871 5871 5870 5869 5870 5870 5872 5872 5873 5873 5874 5875 5876 5877 5878 5880 5882 5883 5884 5886 5887 5888 5889 5889 5890 5891 5893 5895 5898 5900 5902 5902 5903 5904 5906
5876 5876 5875 5874 5873 5871 5870 5869 5868 5868 5868 5867 5867 5867 5868 5868 5869 5870 5870 5870 5871 5872 5873 5875 5877 5879 5880 5881 5883 5885 5886 5886 5888 5889 5890 5892 5894 5897 5899 5900 5901 5902 5903
5873 5872 5871 5870 5870 5868 5867 5866 5865 5864 5864 5864 5864 5864 5864 5864 5864 5865 5865 5866 5866 5867 5868 5870 5872 5874 5875 5877 5879 5880 5882 5883 5885 5886 5888 5890 5892 5894 5896 5897 5898 5899 5900
5868 5868 5867 5866 5866 5865 5864 5863 5861 5860 5860 5860 5859 5859 5859 5859 5860 5860 5861 5861 5861 5862 5863 5865 5866 5868 5870 5872 5874 5876 5877 5879 5882 5884 5886 5888 5890 5892 5893 5894 5895 5896 5898
5863 5863 5862 5861 5861 5860 5859 5858 5857 5856 5856 5855 5855 5854 5854 5855 5855 5856 5856 5856 5857 5858 5859 5860 5861 5863 5865 5867 5869 5871 5873 5875 5878 5881 5883 5885 5887 5889 5890 5891 5893 5894 5895
5858 5858 5858 5857 5856 5855 5854 5853 5852 5851 5851 5851 5850 5850 5850 5850 5850 5851 5852 5852 5853 5854 5855 5856 5857 5859 5861 5863 5865 5867 5869 5871 5874 5877 5880 5882 5884 5886 5888 5889 5890 5891 5892
5852 5852 5853 5852 5851 5850 5849 5848 5847 5846 5845 5845 5845 5844 5844 5845 5845 5845 5847 5847 5848 5849 5851 5852 5853 5854 5856 5858 5860 5862 5865 5868 5871 5873 5876 5879 5881 5883 5885 5886 5887 5888 5889
5846 5846 5846 5846 5845 5844 5843 5842 5841 5840 5839 5838 5838 5838 5838 5838 5839 5840 5841 5842 5843 5844 5846 5847 5848 5849 5852 5854 5856 5858 5861 5864 5866 5869 5872 5875 5877 5879 5881 5883 5884 5885 5886
5840 5840 5840 5839 5839 5838 5837 5836 5835 5834 5833 5832 5831 5831 5831 5831 5832 5833 5834 5836 5837 5839 5841 5842 5844 5845 5847 5850 5852 5854 5856 5859 5862 5865 5867 5870 5872 5874 5876 5878 5880 5881 5882
5834 5833 5833 5832 5832 5831 5830 5829 5828 5827 5826 5825 5825 5825 5825 5824 5825 5826 5828 5830 5832 5834 5835 5837 5839 5841 5842 5845 5847 5849 5852 5855 5858 5860 5863 5865 5867 5869 5871 5873 5875 5877 5878
5827 5827 5826 5825 5825 5824 5823 5822 5821 5820 5819 5818 5818 5818 5818 5818 5819 5820 5822 5824 5826 5828 5830 5832 5834 5836 5837 5839 5842 5844 5847 5850 5853 5856 5858 5860 5862 5864 5866 5868 5870 5872 5874
5821 5821 5820 5819 5818 5817 5816 5815 5814 5813 5812 5811 5811 5811 5812 5813 5813 5814 5816 5817 5820 5823 5825 5827 5829 5831 5832 5834 5836 5839 5841 5844 5847 5850 5853 5855 5857 5859 5861 5863 5865 5867 5869
5815 5815 5814 5812 5811 5810 5809 5808 5807 5806 5805 5804 5804 5804 5805 5806 5807 5808 5810 5812 5814 5817 5820 5823 5825 5826 5828 5830 5832 5834 5836 5839 5842 5845 5848 5850 5852 5854 5856 5858 5860 5862 5864
5809 5808 5807 5806 5805 5804 5803 5802 5801 5800 5799 5798 5798 5798 5799 5800 5801 5803 5805 5806 5809 5812 5815 5818 5821 5823 5825 5827 5828 5830 5831 5834 5837 5840 5843 5845 5848 5850 5852 5854 5856 5857 5859
5803 5801 5800 5798 5798 5797 5796 5795 5795 5794 5793 5792 5792 5793 5794 5795 5796 5797 5799 5801 5803 5807 5810 5813 5816 5818 5821 5823 5825 5826 5828 5830 5832 5835 5838 5840 5843 5845 5848 5849 5851 5852 5854
5795 5794 5792 5791 5791 5790 5789 5789 5788 5788 5788 5787 5787 5788 5789 5790 5791 5792 5794 5796 5798 5801 5805 5807 5810 5813 5816 5818 5820 5823 5825 5826 5828 5830 5832 5835 5838 5840 5842 5844 5846 5848 5850
5789 5788 5787 5785 5784 5783 5783 5783 5783 5783 5783 5783 5783 5783 5784 5785 5787 5788 5790 5792 5794 5796 5799 5802 5804 5807 5810 5813 5815 5818 5820 5822 5823 5825 5827 5830 5832 5834 5837 5839 5841 5843 5845
5784 5783 5782 5780 5779 5778 5778 5777 5777 5778 5778 5778 5779 5779 5780 5781 5782 5783 5785 5787 5789 5791 5794 5796 5798 5801 5804 5807 5809 5812 5814 5816 5818 5820 5822 5824 5826 5828 5830 5832 5835 5837 5839
5779 5778 5777 5775 5773 5773 5772 5772 5772 5772 5773 5773 5774 5775 5775 5776 5777 5779 5780 5782 5784 5786 5788 5791 5793 5794 5797 5799 5802 5805 5807 5809 5812 5815 5817 5818 5820 5822 5824 5827 5828 5830 5832
5774 5772 5771 5769 5768 5767 5766 5766 5766 5766 5767 5768 5768 5769 5770 5771 5772 5774 5775 5776 5778 5780 5782 5785 5786 5788 5790 5792 5795 5797 5800 5802 5806 5808 5810 5812 5814 5816 5818 5820 5821 5823 5825
5769 5767 5765 5764 5763 5761 5760 5760 5759 5759 5760 5761 5762 5763 5764 5765 5766 5768 5769 5771 5772 5774 5776 5778 5779 5781 5783 5784 5786 5789 5792 5795 5798 5800 5803 5805 5807 5809 5810 5812 5814 5816 5817
5763 5762 5760 5759 5757 5756 5754 5753 5753 5753 5753 5753 5754 5755 5757 5758 5759 5761 5763 5764 5766 5767 5769 5771 5772 5773 5775 5776 5778 5780 5783 5786 5789 5792 5795 5797 5799 5800 5802 5805 5807 5808 5810
5758 5756 5754 5753 5751 5749 5748 5747 5746 5746 5746 5746 5746 5748 5749 5750 5752 5754 5755 5757 5759 5760 5762 5764 5765 5766 5767 5768 5770 5771 5773 5776 5780 5783 5786 5789 5790 5792 5794 5797 5798 5799 5801
5753 5750 5748 5746 5744 5742 5741 5740 5739 5739 5739 5739 5739 5740 5741 5743 5745 5746 5748 5750 5751 5753 5755 5756 5758 5759 5760 5761 5761 5763 5764 5767 5770 5773 5776 5779 5781 5782 5785 5788 5789 5790 5790
5747 5745 5742 5740 5738 5736 5734 5733 5732 5732 5731 5732 5732 5733 5734 5736 5738 5740 5741 5743 5744 5746 5747 5749 5750 5752 5753 5754 5755 5756 5757 5758 5761 5764 5766 5769 5770 5772 5775 5777 5778 5779 5780